Terminal Aerodrome Forecast
Issued by NWS Springfield, MO

Home | Current Version | Previous Version | Text Only | Print | Product List | Glossary On
Versions: 1 2 3 4 5 6 7 8 9 10 11 12 13 14 15 16 17 18 19 20 21 22 23 24 25 26 27 28 29 30 31
000
FTUS43 KSGF 022300
TAFSGF
TAF
KSGF 022335Z 0300/0324 14008KT P6SM OVC022
     FM030300 15012KT P6SM OVC018
     FM030800 16016KT 5SM BR OVC012 WS020/21040KT
      TEMPO 0309/0312 2SM -DZ BR OVC008
     FM031200 17013KT 4SM BR OVC006
      TEMPO 0312/0316 2SM -RA BR OVC004
     FM031600 19015KT 4SM -RA BR OVC008
     FM032100 21012KT 5SM BR OVC015=

USA.gov is the U.S. government's official web portal to all federal, state and local government web resources and services.